Wind_Speed
45 45 47 48 43 38 39 46 42 50 54 48 42 45 47 47 46 32 25 19 15 16 18 15 11 10 11 14 8 7 10 8 11 14 16 18 22 24 23 22 22 22 21 22 22 22 23 24 22
43 42 46 46 44 39 31 37 39 38 45 48 46 45 41 44 43 43 38 24 20 18 15 17 19 16 14 11 11 12 15 12 12 12 13 16 16 15 16 17 19 20 20 19 21 23 22 21 21
39 35 41 45 48 39 39 34 34 30 39 40 43 45 45 41 37 39 38 35 23 19 16 13 15 17 17 13 10 8 8 16 16 16 18 16 15 13 15 16 18 19 21 25 24 21 21 23 24
39 42 38 42 45 48 39 37 30 31 29 34 33 33 33 41 36 36 36 36 40 26 17 14 12 15 18 16 17 18 16 13 17 20 20 18 17 17 17 17 18 20 22 23 24 24 24 24 24
38 44 40 40 44 44 39 37 37 34 30 28 31 33 33 29 34 33 32 32 33 33 25 17 13 11 13 20 21 20 24 22 21 20 20 21 21 23 22 21 22 23 24 26 27 27 25 24 25
46 43 37 38 43 49 39 38 37 44 31 26 30 31 35 32 31 31 32 29 27 28 27 27 18 11 10 14 18 20 22 22 24 24 22 22 21 19 20 25 26 24 25 26 27 28 28 26 27
46 46 41 39 43 42 43 41 42 42 38 30 26 27 33 33 29 21 22 27 24 23 21 24 23 21 13 7 7 14 22 25 26 28 29 29 31 31 31 25 23 26 23 20 23 29 31 29 28
43 48 49 47 45 43 44 43 47 41 39 34 29 28 33 33 30 21 19 20 20 21 19 19 21 19 19 21 18 9 12 16 23 30 31 31 33 35 33 34 31 31 29 31 30 31 29 32 33
45 47 51 54 47 48 48 41 46 46 42 34 36 34 32 32 32 27 23 19 16 15 13 10 16 17 16 17 13 12 11 12 18 23 25 27 30 32 36 38 37 34 33 35 37 36 35 35 36
44 48 47 51 49 54 50 46 49 42 41 41 37 35 37 31 30 30 28 20 22 20 17 15 12 16 15 14 15 19 12 7 15 15 20 25 28 31 34 36 36 40 38 38 37 37 36 38 37
45 51 53 47 47 46 47 49 49 45 43 41 38 36 41 39 32 33 30 25 22 23 23 24 19 21 20 21 16 12 13 12 12 12 13 16 23 29 29 33 37 38 40 36 37 41 41 42 39
49 52 54 51 50 47 48 53 48 45 43 43 39 38 48 43 40 37 36 26 23 23 23 27 26 29 27 31 25 20 21 19 17 15 13 14 19 24 29 33 35 38 39 42 43 41 40 40 42
52 57 55 52 49 48 52 52 53 47 41 41 42 44 49 48 43 39 41 38 29 27 29 30 30 30 28 27 31 29 31 28 25 28 26 26 28 27 26 31 33 37 40 43 44 43 44 42 37
55 55 53 53 54 57 51 49 55 50 43 42 41 44 47 48 48 44 41 37 35 34 34 36 36 36 33 35 32 34 36 36 36 33 33 33 35 32 37 36 37 36 34 40 42 43 41 43 45
58 59 59 57 55 55 51 53 55 51 47 45 44 45 45 47 47 47 45 44 42 42 40 40 41 37 38 40 41 40 43 43 43 44 38 38 43 44 44 43 42 39 39 36 39 42 41 37 38
65 66 64 58 56 57 61 59 57 64 56 48 48 49 49 51 48 46 45 48 49 45 46 45 43 42 39 39 42 44 46 49 51 51 50 48 47 51 51 51 48 49 47 45 43 39 43 44 43
69 67 64 57 56 60 64 63 63 69 64 53 51 52 53 54 53 48 48 52 53 54 51 50 47 46 46 45 42 47 48 50 49 49 51 54 56 53 53 54 57 53 53 53 51 50 48 47 46
73 70 66 64 61 64 65 68 67 68 63 61 59 53 51 55 57 56 53 54 54 54 56 57 56 53 50 49 50 49 50 50 50 49 51 54 58 60 59 58 57 58 58 58 56 52 53 50 51
74 74 73 71 68 67 66 70 72 69 68 67 63 58 56 56 60 59 55 55 56 57 55 56 58 58 57 54 54 55 54 56 56 55 54 58 59 62 63 63 63 64 63 63 62 64 64 65 62
76 79 79 77 71 72 71 74 74 72 72 71 69 66 62 62 62 62 59 59 59 59 59 57 59 60 64 62 59 58 57 57 60 62 61 62 60 61 62 66 68 68 68 68 68 68 68 68 69
78 80 82 78 76 74 73 75 77 75 76 74 73 74 73 70 71 69 69 66 62 62 61 62 64 64 65 66 65 63 62 62 63 65 64 67 66 68 66 67 63 66 67 67 69 70 71 71 72
83 81 84 84 78 76 71 74 78 83 79 78 82 80 81 80 77 78 76 70 65 62 61 62 64 68 68 70 68 67 68 66 67 68 68 70 66 65 70 71 72 70 68 68 70 71 72 75 77
83 84 82 77 72 74 79 81 83 84 86 84 84 82 80 78 78 78 75 71 67 62 62 63 67 67 72 71 69 69 70 71 71 70 72 70 69 69 71 73 71 71 70 72 74 76 75 76 75
80 82 81 81 81 80 83 84 83 84 81 79 78 76 73 72 72 70 67 64 64 64 64 65 67 68 71 70 69 69 72 74 74 76 74 72 72 75 75 72 72 72 73 73 73 75 77 77 78
90 89 82 80 83 82 81 80 77 75 66 65 67 66 65 64 66 66 66 67 67 68 67 68 70 70 70 73 72 75 75 73 73 76 75 71 73 76 77 77 78 76 74 74 75 78 80 80 80
83 85 85 83 83 79 72 66 66 62 60 55 56 57 60 64 67 66 66 69 72 73 72 72 70 67 69 72 74 76 78 79 79 77 76 76 78 80 79 77 76 78 78 78 81 83 84 84 85
90 89 80 73 68 66 60 51 48 53 53 51 48 48 49 50 56 62 63 65 69 72 73 71 67 66 67 71 74 75 76 80 83 79 77 80 80 81 80 80 79 80 82 85 87 87 87 87 89
75 64 60 61 52 46 41 41 47 51 54 51 58 59 61 63 61 63 67 69 71 72 74 74 73 72 74 75 77 79 78 77 79 79 81 84 83 83 84 85 86 87 88 91 91 91 92 94 96
56 48 46 43 43 43 40 48 56 64 67 69 64 59 58 58 59 63 67 70 74 76 78 78 76 78 75 75 75 76 79 79 80 82 84 84 85 84 87 89 91 93 95 96 96 97 98 100 102
44 43 44 47 51 55 52 56 69 73 69 65 63 63 62 65 65 67 68 70 71 71 72 73 74 76 75 75 75 74 75 76 77 80 83 85 87 90 92 94 96 98 99 102 104 104 106 107 108
Wind_Direction
5 15 12 10 13 20 24 18 28 22 17 14 25 26 26 28 36 36 28 4 345 345 339 334 330 329 326 316 311 274 262 270 275 271 267 261 259 256 256 258 259 262 262 256 248 246 251 254 255
3 8 9 6 4 6 20 16 20 25 21 19 15 16 26 29 34 37 38 26 27 6 340 337 320 310 306 318 310 264 262 275 273 279 271 267 253 256 268 268 272 272 262 251 247 247 253 257 259
1 1 7 5 0 357 360 10 8 18 17 16 15 10 10 18 25 32 36 39 32 28 11 337 332 310 310 297 309 305 276 262 268 274 265 253 256 261 270 272 266 255 251 242 245 254 259 262 263
352 353 353 2 357 352 347 352 358 7 8 12 8 14 16 12 20 23 24 27 33 35 28 18 354 341 316 301 292 294 285 269 273 274 270 268 264 267 269 259 252 246 251 251 258 257 260 266 267
356 357 349 353 357 351 347 344 343 350 357 357 6 3 10 22 9 13 16 21 27 39 46 36 21 351 320 305 313 289 290 274 277 280 264 261 264 260 260 258 254 257 259 263 271 271 267 268 269
349 350 350 340 352 348 342 349 339 338 341 347 353 358 356 0 10 9 11 19 23 27 38 44 52 28 334 305 291 281 287 285 282 277 275 265 258 259 261 256 254 260 265 268 271 273 272 273 273
339 342 341 334 340 342 341 344 342 335 336 330 339 348 350 351 355 3 4 7 16 21 23 22 33 36 37 359 321 285 274 277 275 266 263 271 271 270 264 248 247 251 262 269 279 273 268 268 267
340 336 336 328 335 342 341 337 341 339 330 325 322 335 334 340 344 353 337 350 10 13 14 8 13 16 20 20 17 337 283 281 277 270 268 271 276 272 266 267 267 262 265 264 272 274 276 274 267
334 329 331 336 334 339 337 331 335 337 335 321 315 322 323 328 333 340 343 320 335 356 7 346 356 353 345 350 358 357 344 328 290 277 278 282 280 271 265 267 269 270 266 268 270 269 275 277 277
327 325 331 333 333 336 333 330 329 330 333 324 317 310 314 315 319 329 333 327 316 331 327 339 319 328 323 312 334 347 327 323 351 328 295 286 279 274 269 270 272 273 273 272 273 272 267 273 271
318 321 321 326 327 329 328 324 322 325 327 325 319 299 321 318 310 319 320 324 311 311 319 310 291 297 306 299 281 290 325 323 314 316 330 314 293 280 277 275 273 273 269 270 274 276 271 267 263
309 315 316 316 320 322 323 326 318 319 323 322 314 299 310 316 311 310 314 307 307 296 303 313 304 292 293 283 282 284 285 292 279 282 281 305 302 288 278 278 271 273 270 267 274 275 272 276 263
306 312 311 312 317 319 320 321 317 312 318 318 312 308 305 308 305 304 310 306 304 300 295 304 306 301 300 286 277 275 286 286 279 283 285 289 290 283 284 282 283 278 277 275 275 275 275 275 271
312 312 313 312 313 315 316 316 313 307 313 311 309 305 306 304 304 303 299 299 302 297 299 305 305 299 293 291 292 289 290 282 288 288 275 268 269 272 272 274 276 278 285 287 285 283 278 274 274
307 304 308 310 311 313 310 311 306 305 307 307 305 303 300 297 299 300 292 297 296 295 288 299 302 306 294 291 289 289 292 294 293 295 279 275 263 267 267 265 266 267 270 275 284 284 282 286 277
301 302 303 305 305 305 306 307 300 304 306 303 302 300 298 296 294 291 291 287 291 293 287 291 293 292 292 285 288 293 297 300 297 294 287 280 277 266 269 270 267 267 265 267 268 273 278 275 276
299 299 301 301 302 303 305 305 300 300 301 300 299 298 298 297 294 290 283 286 286 285 288 288 291 290 290 288 285 283 292 294 291 291 291 291 286 278 268 270 270 271 269 270 268 269 268 266 268
296 298 297 298 300 301 301 301 299 299 300 300 300 292 291 290 289 290 283 281 280 281 283 283 284 288 290 289 284 280 279 285 288 284 285 285 283 280 275 275 276 274 272 269 265 266 265 263 262
295 296 299 298 300 301 299 296 295 291 292 296 294 293 289 289 288 286 283 280 280 280 281 279 280 282 284 286 284 281 277 276 278 277 279 281 282 281 279 277 275 278 276 275 277 277 279 276 273
292 294 297 297 300 299 297 295 293 290 289 291 291 289 288 285 283 280 279 277 279 278 278 278 278 279 280 282 281 280 278 277 274 275 279 278 276 276 278 279 279 280 280 280 281 280 280 279 279
292 292 295 296 297 295 294 292 290 287 287 287 288 287 286 285 279 276 275 275 275 275 274 275 276 277 277 278 278 277 275 273 272 270 271 275 275 276 278 271 274 272 270 271 273 274 273 274 275
289 291 293 295 295 292 290 286 286 285 283 285 290 289 288 285 279 274 273 273 272 270 269 270 272 276 279 279 279 277 277 274 272 274 273 273 277 274 277 275 275 276 273 274 274 275 275 274 274
288 289 290 288 285 285 285 284 285 289 292 292 290 289 288 285 279 275 275 276 274 268 267 268 268 270 273 277 278 276 278 276 275 277 277 274 274 277 279 279 279 279 275 272 272 272 275 275 276
285 285 286 286 284 284 284 286 288 290 289 287 285 285 284 279 279 280 279 275 270 268 267 266 268 270 272 275 272 276 277 276 274 275 280 281 281 282 282 275 278 277 274 273 273 272 272 275 275
282 283 282 282 286 286 287 289 289 287 283 279 280 280 279 276 274 273 272 271 270 269 269 268 269 270 270 270 270 271 272 276 278 279 279 278 279 280 280 279 276 275 274 274 273 274 273 275 274
279 282 287 289 288 286 286 284 281 275 276 278 281 283 282 276 273 271 271 272 273 274 272 272 274 271 271 268 270 271 269 271 273 275 275 277 277 276 276 275 274 273 274 275 277 277 276 276 275
285 288 289 283 281 279 278 273 273 271 273 276 282 291 289 285 282 279 279 277 274 274 274 275 273 271 268 269 271 272 272 272 274 276 275 275 276 275 274 274 275 275 274 276 276 276 276 275 274
286 284 277 276 275 277 272 275 282 281 286 295 299 293 290 294 284 280 279 278 278 277 277 277 276 275 273 274 274 277 276 275 277 277 276 277 277 276 276 276 276 276 275 277 277 277 278 278 277
278 272 268 274 285 290 286 302 294 299 301 306 300 292 290 287 282 280 280 280 281 282 281 282 281 281 282 279 279 277 276 273 273 275 277 277 277 276 276 276 276 276 277 279 278 277 277 277 276
273 279 287 298 303 306 310 305 301 300 302 302 298 296 296 294 292 291 289 286 284 281 282 282 282 282 282 283 282 281 280 279 278 277 277 278 278 279 278 276 277 277 278 279 280 278 276 276 276
Height
10908 10904 10901 10897 10895 10891 10887 10882 10878 10873 10868 10863 10857 10853 10849 10843 10836 10832 10830 10828 10828 10827 10825 10825 10825 10823 10821 10820 10820 10820 10820 10819 10819 10818 10817 10816 10815 10814 10814 10812 10812 10812 10812 10813 10813 10813 10813 10811 10811
10908 10905 10899 10895 10892 10889 10887 10882 10879 10874 10869 10865 10860 10854 10850 10845 10840 10836 10831 10827 10825 10824 10825 10824 10823 10822 10821 10820 10818 10818 10818 10817 10817 10816 10814 10813 10811 10811 10810 10810 10809 10809 10809 10809 10809 10809 10809 10808 10808
10908 10904 10902 10896 10890 10886 10883 10882 10877 10874 10870 10864 10860 10856 10851 10846 10843 10839 10835 10829 10824 10822 10822 10821 10820 10820 10819 10819 10818 10817 10816 10816 10815 10814 10812 10810 10810 10808 10808 10807 10807 10806 10806 10807 10806 10806 10806 10806 10806
10906 10904 10900 10897 10892 10887 10881 10877 10876 10873 10868 10864 10859 10854 10851 10848 10843 10839 10833 10829 10825 10820 10818 10819 10818 10817 10818 10817 10816 10815 10814 10813 10811 10810 10809 10808 10807 10807 10806 10805 10804 10804 10804 10804 10803 10802 10802 10801 10801
10905 10902 10899 10896 10891 10887 10882 10876 10870 10870 10868 10864 10860 10855 10851 10845 10843 10838 10833 10828 10826 10822 10818 10815 10815 10815 10814 10814 10814 10813 10811 10808 10807 10806 10804 10803 10803 10802 10802 10802 10802 10801 10799 10799 10798 10797 10797 10796 10796
10904 10901 10898 10894 10890 10885 10881 10876 10869 10864 10864 10859 10856 10853 10849 10845 10840 10837 10833 10828 10824 10822 10819 10816 10813 10812 10810 10809 10809 10808 10807 10806 10804 10802 10800 10800 10799 10798 10798 10797 10797 10796 10795 10794 10793 10791 10790 10791 10790
10903 10898 10895 10891 10889 10885 10878 10874 10870 10863 10858 10857 10853 10850 10847 10844 10842 10835 10831 10828 10823 10820 10819 10817 10814 10811 10808 10806 10804 10803 10800 10799 10797 10797 10796 10795 10794 10794 10793 10792 10791 10790 10789 10789 10788 10786 10784 10783 10783
10898 10895 10892 10888 10884 10881 10877 10871 10867 10863 10857 10853 10851 10848 10844 10841 10839 10835 10832 10828 10823 10819 10816 10814 10813 10809 10806 10804 10801 10798 10796 10794 10791 10790 10788 10787 10787 10787 10786 10786 10785 10784 10782 10782 10782 10781 10779 10776 10776
10895 10892 10888 10884 10880 10878 10875 10870 10865 10860 10856 10850 10845 10845 10841 10838 10834 10831 10828 10825 10821 10817 10813 10811 10809 10807 10803 10800 10797 10794 10791 10789 10787 10785 10784 10782 10779 10777 10777 10777 10778 10777 10776 10775 10774 10773 10773 10771 10770
10890 10888 10884 10880 10877 10873 10870 10867 10861 10856 10853 10847 10842 10839 10836 10833 10830 10826 10823 10820 10817 10814 10810 10807 10805 10802 10799 10795 10792 10789 10787 10785 10783 10780 10778 10775 10773 10771 10770 10770 10771 10769 10769 10768 10767 10766 10765 10764 10763
10885 10882 10879 10875 10871 10869 10865 10862 10857 10851 10846 10842 10838 10832 10832 10828 10824 10822 10819 10815 10812 10809 10807 10804 10801 10797 10794 10791 10787 10784 10783 10781 10779 10776 10773 10771 10768 10767 10765 10764 10763 10762 10761 10760 10759 10758 10757 10756 10755
10878 10876 10873 10868 10863 10860 10858 10857 10851 10846 10842 10835 10830 10825 10821 10821 10818 10815 10812 10809 10807 10805 10802 10799 10795 10791 10788 10786 10783 10781 10776 10775 10773 10771 10768 10765 10762 10758 10758 10757 10756 10753 10752 10752 10751 10749 10749 10748 10747
10868 10866 10865 10862 10855 10851 10849 10847 10844 10839 10835 10831 10826 10820 10815 10811 10811 10809 10806 10802 10799 10797 10795 10792 10790 10786 10782 10779 10777 10774 10770 10768 10766 10764 10763 10760 10759 10756 10755 10752 10749 10746 10745 10743 10742 10742 10741 10740 10740
10861 10859 10856 10853 10850 10844 10840 10839 10836 10830 10827 10825 10821 10816 10810 10805 10802 10801 10799 10797 10794 10791 10788 10785 10781 10779 10776 10772 10770 10766 10764 10762 10760 10759 10756 10754 10751 10749 10747 10745 10743 10740 10737 10735 10733 10732 10732 10732 10730
10852 10850 10850 10844 10841 10835 10832 10830 10826 10821 10816 10814 10811 10807 10802 10798 10794 10792 10789 10788 10785 10783 10779 10777 10774 10771 10768 10765 10761 10758 10755 10753 10751 10749 10746 10744 10742 10739 10737 10735 10731 10728 10726 10725 10725 10723 10722 10721 10721
10842 10838 10839 10838 10832 10826 10819 10820 10817 10813 10808 10803 10799 10795 10792 10789 10786 10782 10780 10776 10775 10772 10769 10766 10763 10761 10758 10756 10752 10749 10747 10745 10742 10739 10737 10734 10730 10728 10726 10723 10721 10718 10716 10714 10712 10711 10711 10711 10712
10831 10828 10825 10828 10824 10818 10809 10807 10806 10802 10799 10795 10790 10785 10782 10778 10776 10774 10769 10766 10762 10760 10757 10754 10752 10749 10746 10745 10742 10738 10735 10733 10729 10728 10726 10723 10719 10716 10715 10712 10710 10707 10706 10705 10702 10701 10699 10699 10698
10820 10816 10812 10814 10817 10807 10800 10792 10793 10789 10785 10783 10781 10778 10773 10768 10764 10760 10757 10753 10751 10748 10745 10742 10739 10737 10734 10730 10728 10725 10721 10718 10715 10712 10711 10709 10706 10703 10701 10698 10696 10694 10693 10692 10691 10690 10689 10686 10686
10807 10804 10800 10800 10804 10794 10791 10781 10780 10779 10774 10769 10767 10764 10761 10757 10752 10748 10743 10739 10736 10734 10731 10728 10724 10722 10719 10716 10713 10710 10707 10704 10700 10696 10694 10692 10690 10688 10685 10682 10680 10678 10677 10676 10676 10674 10672 10670 10671
10794 10790 10788 10785 10787 10783 10777 10765 10762 10762 10758 10755 10752 10750 10748 10743 10738 10734 10729 10725 10721 10717 10715 10712 10710 10706 10703 10700 10697 10694 10691 10688 10685 10682 10679 10676 10674 10672 10670 10667 10665 10663 10661 10661 10660 10658 10656 10653 10653
10781 10777 10774 10771 10771 10767 10763 10751 10741 10745 10740 10736 10733 10732 10731 10728 10721 10717 10713 10710 10705 10701 10698 10694 10692 10690 10686 10683 10680 10678 10674 10672 10668 10665 10662 10659 10657 10654 10652 10650 10649 10647 10644 10642 10641 10641 10638 10635 10635
10766 10763 10761 10757 10756 10748 10750 10739 10729 10718 10723 10718 10713 10712 10709 10706 10702 10697 10694 10691 10688 10685 10681 10678 10675 10671 10668 10665 10661 10658 10655 10651 10649 10647 10645 10644 10640 10637 10635 10632 10630 10628 10626 10624 10622 10622 10621 10618 10615
10752 10747 10747 10745 10742 10738 10729 10722 10712 10702 10697 10695 10691 10689 10686 10683 10678 10676 10675 10673 10669 10666 10663 10660 10657 10655 10651 10648 10644 10639 10633 10630 10628 10625 10625 10625 10622 10619 10616 10612 10609 10607 10606 10604 10602 10601 10599 10597 10595
10736 10735 10732 10730 10725 10722 10713 10705 10700 10688 10679 10674 10672 10671 10671 10667 10661 10658 10656 10652 10649 10645 10643 10641 10638 10635 10633 10629 10624 10619 10615 10612 10610 10607 10604 10601 10599 10597 10595 10592 10588 10585 10582 10580 10579 10578 10576 10574 10572
10717 10717 10717 10716 10708 10702 10699 10691 10681 10670 10663 10658 10655 10654 10654 10648 10643 10639 10634 10630 10628 10625 10623 10621 10619 10616 10614 10608 10604 10603 10597 10594 10590 10588 10585 10581 10577 10574 10571 10567 10565 10563 10561 10558 10555 10554 10552 10550 10549
10699 10699 10699 10696 10688 10683 10682 10674 10667 10655 10648 10647 10644 10642 10638 10632 10629 10624 10618 10613 10610 10606 10603 10600 10599 10595 10592 10587 10585 10580 10579 10576 10571 10568 10564 10560 10556 10552 10549 10546 10543 10541 10537 10534 10532 10529 10526 10524 10522
10682 10681 10678 10675 10672 10669 10662 10659 10649 10639 10639 10640 10636 10632 10626 10619 10615 10610 10604 10597 10591 10588 10583 10580 10578 10575 10572 10568 10564 10560 10558 10555 10550 10546 10541 10537 10533 10529 10526 10524 10521 10518 10515 10511 10507 10503 10499 10496 10494
10666 10664 10659 10658 10659 10656 10652 10647 10635 10627 10626 10630 10628 10618 10611 10606 10600 10594 10588 10581 10575 10570 10565 10560 10557 10554 10550 10548 10544 10540 10536 10533 10528 10522 10517 10513 10509 10506 10501 10497 10494 10490 10487 10484 10479 10475 10470 10467 10464
10650 10648 10645 10642 10637 10638 10639 10632 10621 10614 10612 10613 10605 10599 10593 10587 10581 10575 10570 10563 10556 10549 10544 10539 10536 10532 10528 10525 10521 10517 10513 10508 10504 10499 10494 10489 10484 10480 10476 10471 10467 10463 10458 10454 10451 10446 10442 10437 10433
10635 10631 10629 10625 10622 10619 10622 10621 10603 10598 10598 10595 10586 10580 10573 10567 10562 10557 10552 10544 10538 10530 10525 10518 10513 10509 10505 10502 10498 10493 10487 10484 10480 10476 10469 10463 10459 10454 10450 10445 10440 10433 10427 10423 10418 10414 10410 10406 10402